San Antonio, TX

2:35 AM CDT on May 01, 2017 (GMT -0500)
San Antonio International

Weather History for KSAT - October, 2012

Change the Weather History Date:

Monday, October 1, 2012

  Actual Average Record
Temperature  
Mean Temperature 69 °F 75 °F  
Max Temperature 78 °F 86 °F 97 °F (1989)
Min Temperature 60 °F 64 °F 47 °F (1974)
Degree Days  
Heating Degree Days 0 0  
Month to date heating degree days 0 0  
Since 1 July heating degree days 0 2  
Cooling Degree Days 4 10  
Month to date cooling degree days 4 10  
Year to date cooling degree days 3244 2844  
Growing Degree Days 19 (Base 50)    
Moisture  
Dew Point 63 °F    
Average Humidity 80    
Maximum Humidity 100    
Minimum Humidity 60    
Precipitation  
Precipitation 0.49 in 0.11 in 5.96 in (1913)
Month to date precipitation 0.49 0.11  
Year to date precipitation 36.85 24.08  
Snow  
Snow 0.00 in - - ()
Month to date snowfall 0.0  
Since 1 July snowfall 0.0  
Since 1 September snowfall 0.0  
Snow Depth 0.00 in    
Sea Level Pressure  
Sea Level Pressure 29.86 in    
Wind  
Wind Speed 5 mph (WNW)    
Max Wind Speed 17 mph    
Max Gust Speed 23 mph    
Visibility 9 miles    
Events Fog , Rain , Thunderstorm    
T = Trace of Precipitation, MM = Missing Value Source: NWS Daily Summary

Daily Weather History Graph

Daily Weather History Graph

Search for Another Location

Airport or City:

Trip Planner

Search our weather history database for the weather conditions in past years. The results will help you decide how hot, cold, wet, or windy it might be!

Date:

Astronomy

Oct. 01, 2012 Rise Set
Actual Time 7:27 AM CDT 7:18 PM CDT
Civil Twilight 7:03 AM CDT 7:42 PM CDT
Nautical Twilight 6:36 AM CDT 8:10 PM CDT
Astronomical Twilight 6:08 AM CDT 8:37 PM CDT
Moon 8:09 PM CDT 8:47 AM CDT
Length of Visible Light 12h 38m
Length of Day
11h 51m
Full, 98% of the Moon is Illuminated
Oct 1
Full
Oct 8
Last Quarter
Oct 15
New
Oct 21
First Quarter
Oct 29
Full

Hourly Weather History & Observations

Time (CDT) Temp. Dew Point Humidity Pressure Visibility Wind Dir Wind Speed Gust Speed Precip Events Conditions
12:53 AM 66.0 °F 62.1 °F 87% 29.84 in 10.0 mi North 5.8 mph - N/A   Partly Cloudy
1:53 AM 64.0 °F 62.1 °F 93% 29.85 in 10.0 mi NNW 4.6 mph - N/A   Clear
2:53 AM 63.0 °F 62.1 °F 97% 29.84 in 10.0 mi North 4.6 mph - N/A   Partly Cloudy
3:53 AM 63.0 °F 61.0 °F 93% 29.84 in 10.0 mi North 3.5 mph - N/A   Clear
4:53 AM 61.0 °F 61.0 °F 100% 29.84 in 10.0 mi NW 3.5 mph - N/A   Clear
5:53 AM 61.0 °F 60.1 °F 97% 29.84 in 10.0 mi NNW 4.6 mph - N/A   Clear
6:53 AM 60.1 °F 59.0 °F 96% 29.85 in 10.0 mi NW 5.8 mph - N/A   Clear
7:53 AM 61.0 °F 60.1 °F 97% 29.85 in 10.0 mi NW 4.6 mph - N/A   Scattered Clouds
8:53 AM 64.9 °F 63.0 °F 93% 29.87 in 10.0 mi West 4.6 mph - N/A   Partly Cloudy
9:53 AM 71.1 °F 64.0 °F 78% 29.88 in 10.0 mi West 6.9 mph - N/A   Partly Cloudy
10:53 AM 75.0 °F 60.1 °F 60% 29.88 in 10.0 mi West 3.5 mph - N/A   Scattered Clouds
11:53 AM 77.0 °F 62.1 °F 60% 29.87 in 10.0 mi West 8.1 mph - N/A   Scattered Clouds
12:53 PM 77.0 °F 62.1 °F 60% 29.85 in 10.0 mi WSW 3.5 mph - N/A   Mostly Cloudy
1:17 PM 77.0 °F 62.6 °F 61% 29.89 in 10.0 mi WSW 9.2 mph - 0.00 in Rain , Thunderstorm Light Thunderstorms and Rain
1:22 PM 73.4 °F 64.4 °F 73% 29.89 in 10.0 mi West 6.9 mph - 0.01 in Rain , Thunderstorm Thunderstorms and Rain
1:29 PM 69.8 °F 66.2 °F 88% 29.92 in 0.2 mi West 13.8 mph 20.7 mph 0.14 in Fog , Rain , Thunderstorm Heavy Thunderstorms and Rain
1:35 PM 68.0 °F 64.4 °F 88% 29.90 in 2.5 mi WSW 12.7 mph 23.0 mph 0.37 in Rain , Thunderstorm Heavy Thunderstorms and Rain
1:44 PM 68.0 °F 66.2 °F 94% 29.90 in 5.0 mi WNW 12.7 mph - 0.40 in Rain , Thunderstorm Thunderstorms and Rain
1:53 PM 66.0 °F 64.0 °F 93% 29.86 in 7.0 mi WNW 8.1 mph - 0.43 in Rain , Thunderstorm Thunderstorms and Rain
2:12 PM 66.2 °F 64.4 °F 94% 29.89 in 10.0 mi WNW 6.9 mph - 0.03 in Rain Light Rain
2:53 PM 70.0 °F 66.9 °F 90% 29.83 in 10.0 mi West 5.8 mph - 0.03 in   Mostly Cloudy
3:53 PM 73.4 °F 66.2 °F 78% 29.87 in 10.0 mi SW 5.8 mph - N/A   Mostly Cloudy
4:46 PM 75.2 °F 66.2 °F 73% 29.86 in 10.0 mi Calm Calm - N/A Thunderstorm Thunderstorm
4:53 PM 75.9 °F 66.0 °F 71% 29.82 in 10.0 mi Calm Calm - N/A Thunderstorm Thunderstorm
5:53 PM 68.0 °F 66.9 °F 96% 29.83 in 10.0 mi West 4.6 mph - 0.03 in Thunderstorm Thunderstorm
6:27 PM 64.4 °F 62.6 °F 94% 29.87 in 10.0 mi NW 4.6 mph - N/A   Mostly Cloudy
6:53 PM 64.9 °F 64.0 °F 97% 29.83 in 10.0 mi NW 4.6 mph - N/A   Mostly Cloudy
7:53 PM 64.0 °F 63.0 °F 96% 29.84 in 10.0 mi NW 4.6 mph - N/A   Scattered Clouds
8:53 PM 63.0 °F 63.0 °F 100% 29.86 in 10.0 mi NW 4.6 mph - N/A   Partly Cloudy
9:53 PM 63.0 °F 62.1 °F 97% 29.88 in 10.0 mi NW 5.8 mph - N/A   Partly Cloudy
10:53 PM 62.1 °F 62.1 °F 100% 29.89 in 10.0 mi NW 5.8 mph - N/A   Partly Cloudy
11:53 PM 62.1 °F 61.0 °F 96% 29.88 in 10.0 mi NW 5.8 mph - N/A   Partly Cloudy